| time (UTC) | temp F | wind direction | speed MPH | gust MPH | rain 1hr in | rain 24hr in | rain mn in | humidity % | barometer mb |
| 20260503233027 | 64 | 268 | 1.0 | 5.0 | 0.00 | 0.00 | 0.00 | 17 | 1016.9 |
| 20260503231530 | 65 | 249 | 3.0 | 9.0 | 0.00 | 0.00 | 0.00 | 18 | 1017.1 |
| 20260503230026 | 65 | 245 | 2.0 | 6.0 | 0.00 | 0.00 | 0.00 | 18 | 1017.0 |
| 20260503224526 | 66 | 291 | 3.0 | 7.0 | 0.00 | 0.00 | 0.00 | 17 | 1017.1 |
| 20260503223025 | 65 | 202 | 1.0 | 9.0 | 0.00 | 0.00 | 0.00 | 18 | 1017.3 |
| 20260503221524 | 64 | 304 | 0.0 | 2.0 | 0.00 | 0.00 | 0.00 | 18 | 1017.5 |
| 20260503220024 | 64 | 150 | 0.0 | 4.0 | 0.00 | 0.00 | 0.00 | 20 | 1017.7 |
| 20260503214526 | 65 | 272 | 0.0 | 4.0 | 0.00 | 0.00 | 0.00 | 18 | 1018.1 |
| 20260503213022 | 64 | 215 | 0.0 | 7.0 | 0.00 | 0.00 | 0.00 | 18 | 1018.3 |
| 20260503211523 | 65 | 226 | 1.0 | 6.0 | 0.00 | 0.00 | 0.00 | 18 | 1018.7 |
| 20260503210025 | 65 | 91 | 3.0 | 5.0 | 0.00 | 0.00 | 0.00 | 17 | 1018.9 |
| 20260503204521 | 65 | 114 | 2.0 | 9.0 | 0.00 | 0.00 | 0.00 | 17 | 1019.2 |
| 20260503203022 | 66 | 81 | 3.0 | 10.0 | 0.00 | 0.00 | 0.00 | 16 | 1019.6 |
| 20260503201518 | 68 | 107 | 4.0 | 7.0 | 0.00 | 0.00 | 0.00 | 16 | 1019.7 |
| 20260503200016 | 67 | 88 | 1.0 | 4.0 | 0.00 | 0.00 | 0.00 | 17 | 1020.1 |
| 20260503194515 | 68 | 132 | 2.0 | 9.0 | 0.00 | 0.00 | 0.00 | 17 | 1020.3 |
| 20260503193012 | 67 | 89 | 1.0 | 7.0 | 0.00 | 0.00 | 0.00 | 18 | 1020.6 |
| 20260503191511 | 66 | 125 | 2.0 | 8.0 | 0.00 | 0.00 | 0.00 | 16 | 1020.8 |
| 20260503190009 | 66 | 126 | 0.0 | 6.0 | 0.00 | 0.00 | 0.00 | 19 | 1021.1 |
| 20260503184515 | 65 | 95 | 3.0 | 11.0 | 0.00 | 0.00 | 0.00 | 18 | 1021.3 |
| 20260503183006 | 65 | 87 | 2.0 | 7.0 | 0.00 | 0.00 | 0.00 | 19 | 1021.5 |
| 20260503181506 | 64 | 265 | 4.0 | 7.0 | 0.00 | 0.00 | 0.00 | 19 | 1021.9 |
| 20260503180003 | 62 | 277 | 3.0 | 15.0 | 0.00 | 0.00 | 0.00 | 19 | 1022.1 |
| 20260503174502 | 62 | 315 | 4.0 | 11.0 | 0.00 | 0.00 | 0.00 | 20 | 1022.6 |
| 20260503173118 | 61 | 124 | 1.0 | 5.0 | 0.00 | 0.00 | 0.00 | 21 | 1022.8 |
| 20260503171558 | 60 | 286 | 3.0 | 9.0 | 0.00 | 0.00 | 0.00 | 22 | 1023.1 |
| 20260503081514 | 46 | 275 | 0.0 | 3.0 | 0.00 | 0.00 | 0.00 | 35 | 1025.6 |
| 20260503071511 | 45 | 299 | 0.0 | 2.0 | 0.00 | 0.00 | 0.00 | 37 | 1026.3 |
| 20260503054503 | 46 | 103 | 0.0 | 2.0 | 0.00 | 0.00 | 0.00 | 37 | 1027.0 |
| 20260503053003 | 46 | 105 | 0.0 | 1.0 | 0.00 | 0.00 | 0.00 | 39 | 1027.0 |
| 20260503051502 | 46 | 105 | 0.0 | 2.0 | 0.00 | 0.00 | 0.00 | 37 | 1027.1 |
| 20260503050002 | 47 | 105 | 0.0 | 1.0 | 0.00 | 0.00 | 0.00 | 37 | 1027.1 |
| 20260503044502 | 48 | 104 | 0.0 | 4.0 | 0.00 | 0.00 | 0.00 | 34 | 1027.1 |
| 20260503043001 | 47 | 277 | 0.0 | 1.0 | 0.00 | 0.00 | 0.00 | 36 | 1027.2 |
| 20260503041502 | 48 | 275 | 0.0 | 2.0 | 0.00 | 0.00 | 0.00 | 36 | 1027.2 |
| 20260503034616 | 47 | 272 | 0.0 | 2.0 | 0.00 | 0.00 | 0.00 | 37 | 1027.1 |
| 20260503033102 | 48 | 269 | 0.0 | 1.0 | 0.00 | 0.00 | 0.00 | 36 | 1027.0 |
| 20260503031559 | 48 | 269 | 0.0 | 1.0 | 0.00 | 0.00 | 0.00 | 35 | 1026.9 |
| 20260503030059 | 49 | 269 | 0.0 | 1.0 | 0.00 | 0.00 | 0.00 | 33 | 1026.9 |
| 20260503024605 | 49 | 269 | 0.0 | 1.0 | 0.00 | 0.00 | 0.00 | 32 | 1026.7 |
| 20260503023059 | 51 | 270 | 0.0 | 2.0 | 0.00 | 0.00 | 0.00 | 30 | 1026.7 |
| 20260503021559 | 52 | 146 | 0.0 | 3.0 | 0.00 | 0.00 | 0.00 | 28 | 1026.8 |
| 20260503014619 | 53 | 119 | 0.0 | 4.0 | 0.00 | 0.00 | 0.00 | 27 | 1026.7 |
| 20260503013057 | 54 | 121 | 2.0 | 5.0 | 0.00 | 0.00 | 0.00 | 26 | 1026.5 |
| 20260503011557 | 55 | 108 | 2.0 | 6.0 | 0.00 | 0.00 | 0.00 | 25 | 1026.5 |
| 20260503010055 | 56 | 179 | 2.0 | 7.0 | 0.00 | 0.00 | 0.00 | 24 | 1026.4 |
| 20260503004554 | 59 | 106 | 4.0 | 8.0 | 0.00 | 0.00 | 0.00 | 23 | 1026.4 |
| 20260503003055 | 59 | 130 | 4.0 | 8.0 | 0.00 | 0.00 | 0.00 | 23 | 1026.6 |
| 20260503001554 | 60 | 110 | 4.0 | 8.0 | 0.00 | 0.00 | 0.00 | 23 | 1026.6 |
| 20260503000054 | 60 | 110 | 4.0 | 13.0 | 0.00 | 0.00 | 0.00 | 23 | 1026.8 |
| 20260502234554 | 60 | 152 | 5.0 | 9.0 | 0.00 | 0.00 | 0.00 | 23 | 1027.0 |